Regional Weather Roundup
Issued by NWS

Home | Current Version | Previous Version | Text Only | Print | Product List | Glossary On
Versions: 1 2 3 4 5 6 7 8 9 10 11 12 13 14 15 16 17 18 19 20 21 22 23 24 25 26 27 28 29 30 31 32 33 34 35 36 37 38 39 40 41 42 43 44 45 46 47 48 49 50
000
ASUS43 KMKX 250520
RWRWI

WISCONSIN REGIONAL WEATHER ROUNDUP
NATIONAL WEATHER SERVICE MILWAUKEE/SULLIVAN WI
1200 AM CDT THU MAY 25 2017

NOTE: "FAIR" INDICATES FEW OR NO CLOUDS BELOW 12,000 FEET WITH NO
SIGNIFICANT WEATHER AND/OR OBSTRUCTIONS TO VISIBILITY.

WIZ001-002-006>008-014>016-023>028-250600-
NORTHWEST WISCONSIN

CITY           SKY/WX    TMP DP  RH WIND       PRES   REMARKS
SUPERIOR ARPT  NOT AVBL
ASHLAND        CLEAR     37  37 100 CALM      29.77S
HAYWARD        PTCLDY    45  42  89 NE5       29.74F
SIREN          CLOUDY    55  46  72 CALM      29.73S
CUMBERLAND     CLOUDY    52  45  76 CALM      29.73S
RICE LAKE      CLOUDY    53  48  83 CALM      29.74F
CHETEK         CLOUDY    51  49  93 CALM      29.73S
LADYSMITH      CLOUDY    51  47  88 NE3       29.75S
EAU CLAIRE     CLOUDY    53  49  86 CALM      29.71F
MENOMONIE      CLOUDY    52  49  88 CALM      29.72F
NEW RICHMOND   CLOUDY    53  46  78 CALM      29.72S
OSCEOLA        CLOUDY    54  48  81 E5        29.75S
$$

WIZ003>005-009-010-017-018-250600-
NORTH CENTRAL WISCONSIN

CITY           SKY/WX    TMP DP  RH WIND       PRES   REMARKS
MANITOWISH WTR CLOUDY    50  47  90 NE3       29.74S
ARBOR VITAE    CLOUDY    52  49  89 CALM      29.74S
WOODRUFF       CLOUDY    52  49  89 CALM      29.74S
RHINELANDER    CLOUDY    52  48  86 NE5       29.74S
EAGLE RIVER    CLOUDY    50  45  81 NE5       29.74S
LAND O LAKES   CLOUDY    50  46  85 CALM      29.76F
PHILLIPS       CLOUDY    50  48  93 CALM      29.74S
TOMAHAWK       CLOUDY    50  47  90 CALM      29.74S
MEDFORD        CLOUDY    50  47  89 NE3       29.72F
MERRILL        CLOUDY    51  49  94 CALM      29.73S
$$

WIZ029-030-035-036-043>047-250600-
CENTRAL WISCONSIN

CITY           SKY/WX    TMP DP  RH WIND       PRES   REMARKS
WAUSAU         CLOUDY    52  49  89 NE6       29.70S
MOSINEE        PTCLDY    50  50 100 N6        29.72S
MARSHFIELD     CLEAR     48  45  89 N3        29.70F
STEVENS POINT  CLOUDY    49  49 100 CALM      29.71F
WAUPACA        CLOUDY    55  51  88 N6        29.70S
WAUTOMA        MOCLDY    52  50  93 MISG      29.69F
WISC RAPIDS    CLOUDY    54  49  83 NE5       29.72S
CAMP DOUGLAS   CLOUDY    51  51  99 NW3       29.71S
$$

WIZ011>013-019>022-031-037>040-048>050-250600-
NORTHEAST WISCONSIN

CITY           SKY/WX    TMP DP  RH WIND       PRES   REMARKS
ANTIGO         CLEAR     46  46 100 N6        29.72F
SHAWANO        CLOUDY    55  50  85 N8        29.70F
OCONTO         CLOUDY    51  48  91 N7        29.69S
STURGEON BAY   CLOUDY    49  47  93 N10       29.69S
GREEN BAY      MOCLDY    51  50  96 N7        29.67F
MANITOWOC      PTCLDY    51  48  89 N10       29.65S
APPLETON       CLOUDY    52  50  93 NE13      29.66F
CLINTONVILLE   CLOUDY    52  48  87 N6        29.69S
OSHKOSH        CLOUDY    53  49  86 N13       29.67R
$$

WIZ032>034-041-042-053>061-250600-
SOUTHWEST WISCONSIN

CITY           SKY/WX    TMP DP  RH WIND       PRES   REMARKS
LA CROSSE      PTCLDY    55  50  83 VRB3      29.70S
SPARTA         PTCLDY    47  47 100 CALM      29.72S
VIROQUA        CLOUDY    52  51  94 SW3       29.70S
BOSCOBEL       MOCLDY    49  48  97 CALM      29.70S FOG
PRAIRIE DU CHI PTCLDY    50  48  93 CALM      29.69F
PLATTEVILLE    CLOUDY    54  53  97 N9        29.68S
$$

WIZ056-057-062-063-064-067-068-250600-
SOUTH CENTRAL WISCONSIN

CITY           SKY/WX    TMP DP  RH WIND       PRES   REMARKS
REEDSBURG      CLOUDY    53  51  95 NE5       29.69S
BARABOO/DELLS  CLOUDY    52  48  84 N5        29.69S
LONE ROCK      CLOUDY    55  49  80 CALM      29.69S
MINERAL POINT  CLOUDY    54  52  94 N7        29.68S
MADISON        CLOUDY    53  50  89 N9        29.65F
MIDDLETON      CLOUDY    54  51  89 N9        29.67F
WATERTOWN      CLOUDY    52  52  99 N8        29.63S
MONROE         CLOUDY    52  50  93 N12       29.65R
JANESVILLE     CLOUDY    54  52  94 N3        29.63S
$$

WIZ051-052-058>065-066-070>072-250600-
SOUTHEAST WISCONSIN

CITY           SKY/WX    TMP DP  RH WIND       PRES   REMARKS
MILWAUKEE      CLOUDY    55  51  86 N13       29.59F
WAUKESHA       MOCLDY    50  48  93 N7        29.62S
MILWAUKEE/TIMM   N/A     52  46  82 N7        29.61S
RACINE         MOCLDY    51  47  86 N17G26    29.60F
KENOSHA        CLOUDY    54  50  86 N8        29.58F
FOND DU LAC    CLOUDY    54  49  83 N13       29.66S
SHEBOYGAN      CLOUDY    51  50  96 N8        29.63S
WEST BEND      CLOUDY    52  50  93 N5        29.63S
JUNEAU         CLOUDY    52  49  92 N13       29.65S
$$

LSZ147-162-250600-
LAKE SUPERIOR

STATION/POSITION TIME  TEMP    WIND        PRES    WAVE
                       AIR SEA DIR/SP/G            HT/PER
                 (UTC) (F)     (DEG/KT/KT) (MB)    (FT/S)
$$

LMZ867-665-643>646-250600-
LAKE MICHIGAN

STATION/POSITION TIME  TEMP    WIND        PRES    WAVE
                       AIR SEA DIR/SP/G            HT/PER
                 (UTC) (F)     (DEG/KT/KT) (MB)    (FT/S)
$$

TC  - TEMPERATURE IN CELSIUS
VSB - VISIBILITY IN STATUTE MILES
WCI - WIND CHILL INDEX
HX  - HEAT INDEX





USA.gov is the U.S. government's official web portal to all federal, state and local government web resources and services.